Location: Bemmer
(51.5498°N, 5.6249°E)
Time: 03:07:13
(UTC+00:00)

OBJECT-B - Pass Details

Date: 03 March 2021
Orbit: 414 x 427 km, 97.0° (Epoch: 11 April)

Event Time Altitude Azimuth Distance (km) Brightness Sun altitude
Exits shadow 18:05:12 10° 85° (E) 1,509 2.9 -7.6°
Maximum altitude 18:06:29 12° 61° (ENE) 1,393 2.9 -7.8°
Drops below altitude 10° 18:07:49 10° 37° (NE) 1,515 3.2 -8.0°
Sets 18:10:48 0° 5° (N) 2,383 4.5 -8.4°
